Time,TemperatureF,DewpointF,PressureIn,WindDirection,WindDirectionDegrees,WindSpeedMPH,WindSpeedGustMPH,Humidity,HourlyPrecipIn,Conditions,Clouds,dailyrainin,SoftwareType,DateUTC
2013-01-13 00:03:00,30.6,21.2,29.78,WNW,292,4.6,4.6,68,0.00,CLR,,0.00,WeatherDisplay:10.37,2013-01-13 06:03:00,
2013-01-13 00:08:00,30.6,21.2,29.78,WNW,292,2.3,2.6,68,0.00,CLR,,0.00,WeatherDisplay:10.37,2013-01-13 06:08:00,
2013-01-13 00:13:00,30.9,21.6,29.78,WNW,292,2.3,2.3,68,0.00,CLR,,0.00,WeatherDisplay:10.37,2013-01-13 06:13:00,
2013-01-13 00:18:00,30.7,21.8,29.78,WNW,292,1.2,1.4,69,0.00,CLR,,0.00,WeatherDisplay:10.37,2013-01-13 06:18:00,
2013-01-13 00:23:00,30.9,21.9,29.78,WNW,292,1.2,1.2,69,0.00,CLR,,0.00,WeatherDisplay:10.37,2013-01-13 06:23:00,
2013-01-13 00:28:00,30.9,21.9,29.78,WNW,292,1.2,1.2,69,0.00,CLR,,0.00,WeatherDisplay:10.37,2013-01-13 06:28:00,
2013-01-13 00:33:00,30.9,22.3,29.78,WNW,292,1.2,1.2,70,0.00,CLR,,0.00,WeatherDisplay:10.37,2013-01-13 06:33:00,
2013-01-13 00:38:00,30.9,22.3,29.82,WNW,292,2.3,2.3,70,0.00,CLR,,0.00,WeatherDisplay:10.37,2013-01-13 06:38:00,
2013-01-13 00:43:00,31.1,22.8,29.82,WNW,292,2.3,2.3,71,0.00,CLR,,0.00,WeatherDisplay:10.37,2013-01-13 06:43:00,
2013-01-13 00:48:00,31.3,23.0,29.82,WNW,292,1.2,1.2,71,0.00,CLR,,0.00,WeatherDisplay:10.37,2013-01-13 06:48:00,
2013-01-13 00:53:00,31.1,23.1,29.82,WNW,292,2.3,2.3,72,0.00,CLR,,0.00,WeatherDisplay:10.37,2013-01-13 06:53:00,
2013-01-13 00:58:00,30.9,22.6,29.82,WNW,292,4.6,4.6,71,0.00,CLR,,0.00,WeatherDisplay:10.37,2013-01-13 06:58:00,
2013-01-13 01:03:00,30.9,22.6,29.82,WNW,292,1.2,1.4,71,0.00,CLR,,0.00,WeatherDisplay:10.37,2013-01-13 07:03:00,
2013-01-13 01:08:00,30.9,23.0,29.82,WNW,292,0.0,0.6,72,0.00,CLR,,0.00,WeatherDisplay:10.37,2013-01-13 07:08:00,
2013-01-13 01:13:00,31.1,23.1,29.82,WNW,292,2.3,2.3,72,0.00,CLR,,0.00,WeatherDisplay:10.37,2013-01-13 07:13:00,
2013-01-13 01:18:00,30.9,23.3,29.83,WNW,292,2.3,2.3,73,0.00,CLR,,0.00,WeatherDisplay:10.37,2013-01-13 07:18:00,
2013-01-13 01:23:00,30.9,23.0,29.83,WNW,292,2.6,2.6,72,0.00,CLR,,0.00,WeatherDisplay:10.37,2013-01-13 07:23:00,
2013-01-13 01:28:00,30.9,23.0,29.83,WNW,292,2.3,2.3,72,0.00,CLR,,0.00,WeatherDisplay:10.37,2013-01-13 07:28:00,
2013-01-13 01:33:00,30.9,23.0,29.83,WNW,292,2.3,2.3,72,0.00,CLR,,0.00,WeatherDisplay:10.37,2013-01-13 07:33:00,
2013-01-13 01:38:00,30.6,22.6,29.83,WNW,292,2.4,2.4,72,0.00,CLR,,0.00,WeatherDisplay:10.37,2013-01-13 07:38:00,
2013-01-13 01:43:00,30.6,22.6,29.83,WNW,292,1.5,1.5,72,0.00,CLR,,0.00,WeatherDisplay:10.37,2013-01-13 07:43:00,
2013-01-13 01:48:00,30.7,22.8,29.83,WNW,292,1.2,1.2,72,0.00,CLR,,0.00,WeatherDisplay:10.37,2013-01-13 07:48:00,
2013-01-13 01:53:00,30.4,22.4,29.83,WNW,292,1.6,1.6,72,0.00,CLR,,0.00,WeatherDisplay:10.37,2013-01-13 07:53:00,
2013-01-13 01:58:00,30.4,22.4,29.82,WNW,292,2.3,2.3,72,0.00,CLR,,0.00,WeatherDisplay:10.37,2013-01-13 07:58:00,
2013-01-13 02:03:00,30.2,22.3,29.82,WNW,292,2.3,2.3,72,0.00,CLR,,0.00,WeatherDisplay:10.37,2013-01-13 08:03:00,
2013-01-13 02:08:00,30.4,22.4,29.82,WNW,292,1.2,1.2,72,0.00,CLR,,0.00,WeatherDisplay:10.37,2013-01-13 08:08:00,
2013-01-13 02:13:00,30.4,22.4,29.82,WNW,292,0.0,1.2,72,0.00,CLR,,0.00,WeatherDisplay:10.37,2013-01-13 08:13:00,
2013-01-13 02:18:00,30.4,22.4,29.82,WNW,292,2.3,2.3,72,0.00,CLR,,0.00,WeatherDisplay:10.37,2013-01-13 08:18:00,
2013-01-13 02:23:00,30.4,22.8,29.82,WNW,292,2.3,2.3,73,0.00,CLR,,0.00,WeatherDisplay:10.37,2013-01-13 08:23:00,
2013-01-13 02:28:00,30.2,22.6,29.82,WNW,292,1.2,1.2,73,0.00,CLR,,0.00,WeatherDisplay:10.37,2013-01-13 08:28:00,
2013-01-13 02:33:00,30.2,22.6,29.82,WNW,292,2.3,2.3,73,0.00,CLR,,0.00,WeatherDisplay:10.37,2013-01-13 08:33:00,
2013-01-13 02:38:00,30.0,22.4,29.81,WNW,292,2.3,2.3,73,0.00,CLR,,0.00,WeatherDisplay:10.37,2013-01-13 08:38:00,
2013-01-13 02:43:00,30.0,22.4,29.81,WNW,292,1.2,1.2,73,0.00,CLR,,0.00,WeatherDisplay:10.37,2013-01-13 08:43:00,
2013-01-13 02:48:00,30.0,22.4,29.81,WNW,292,0.0,0.7,73,0.00,CLR,,0.00,WeatherDisplay:10.37,2013-01-13 08:48:00,
2013-01-13 02:53:00,30.0,22.4,29.81,WNW,292,1.2,1.2,73,0.00,CLR,,0.00,WeatherDisplay:10.37,2013-01-13 08:53:00,
2013-01-13 02:58:00,30.0,22.4,29.81,WNW,292,2.3,2.3,73,0.00,CLR,,0.00,WeatherDisplay:10.37,2013-01-13 08:58:00,
2013-01-13 03:03:00,30.0,22.4,29.81,WNW,292,1.4,1.4,73,0.00,CLR,,0.00,WeatherDisplay:10.37,2013-01-13 09:03:00,
2013-01-13 03:08:00,30.0,22.4,29.81,WNW,292,1.4,1.4,73,0.00,CLR,,0.00,WeatherDisplay:10.37,2013-01-13 09:08:00,
2013-01-13 03:13:00,30.0,22.4,29.81,WNW,292,1.4,1.4,73,0.00,CLR,,0.00,WeatherDisplay:10.37,2013-01-13 09:13:00,
2013-01-13 03:18:00,30.0,22.4,29.81,WNW,292,1.2,1.2,73,0.00,CLR,,0.00,WeatherDisplay:10.37,2013-01-13 09:18:00,
2013-01-13 03:23:00,30.0,22.4,29.81,WNW,292,0.0,0.1,73,0.00,CLR,,0.00,WeatherDisplay:10.37,2013-01-13 09:23:00,
2013-01-13 03:28:00,30.0,22.4,29.81,WNW,292,0.0,0.2,73,0.00,CLR,,0.00,WeatherDisplay:10.37,2013-01-13 09:28:00,
2013-01-13 03:33:00,30.0,22.4,29.81,WNW,292,0.0,0.2,73,0.00,CLR,,0.00,WeatherDisplay:10.37,2013-01-13 09:33:00,
2013-01-13 03:38:00,30.0,22.4,29.83,WNW,292,2.3,2.3,73,0.00,CLR,,0.00,WeatherDisplay:10.37,2013-01-13 09:38:00,
2013-01-13 03:43:00,30.0,22.4,29.83,WNW,292,0.0,0.3,73,0.00,CLR,,0.00,WeatherDisplay:10.37,2013-01-13 09:43:00,
2013-01-13 03:48:00,30.0,22.4,29.83,WNW,292,1.2,1.2,73,0.00,CLR,,0.00,WeatherDisplay:10.37,2013-01-13 09:48:00,
2013-01-13 03:53:00,30.0,22.4,29.83,WNW,292,1.2,1.2,73,0.00,CLR,,0.00,WeatherDisplay:10.37,2013-01-13 09:53:00,
2013-01-13 03:58:00,30.0,22.4,29.79,WNW,292,1.2,1.2,73,0.00,CLR,,0.00,WeatherDisplay:10.37,2013-01-13 09:58:00,
2013-01-13 04:03:00,30.0,22.4,29.79,WNW,292,0.0,1.0,73,0.00,CLR,,0.00,WeatherDisplay:10.37,2013-01-13 10:03:00,
2013-01-13 04:08:00,30.0,22.4,29.79,WNW,292,2.3,2.3,73,0.00,CLR,,0.00,WeatherDisplay:10.37,2013-01-13 10:08:00,
2013-01-13 04:13:00,30.0,22.4,29.79,WNW,292,1.2,1.2,73,0.00,CLR,,0.00,WeatherDisplay:10.37,2013-01-13 10:13:00,
2013-01-13 04:18:00,30.0,22.4,29.77,WNW,292,2.3,2.3,73,0.00,CLR,,0.00,WeatherDisplay:10.37,2013-01-13 10:18:00,
2013-01-13 04:23:00,30.0,22.4,29.77,WNW,292,1.2,1.2,73,0.00,CLR,,0.00,WeatherDisplay:10.37,2013-01-13 10:23:00,
2013-01-13 04:28:00,30.0,22.4,29.77,WNW,292,1.2,1.2,73,0.00,CLR,,0.00,WeatherDisplay:10.37,2013-01-13 10:28:00,
2013-01-13 04:33:00,30.0,22.4,29.77,WNW,292,1.2,1.2,73,0.00,CLR,,0.00,WeatherDisplay:10.37,2013-01-13 10:33:00,
2013-01-13 04:38:00,30.0,22.4,29.79,WNW,292,0.0,0.6,73,0.00,CLR,,0.00,WeatherDisplay:10.37,2013-01-13 10:38:00,
2013-01-13 04:43:00,30.0,22.4,29.79,WNW,292,0.0,0.2,73,0.00,CLR,,0.00,WeatherDisplay:10.37,2013-01-13 10:43:00,
2013-01-13 04:48:00,30.0,22.4,29.79,WNW,292,1.2,1.2,73,0.00,CLR,,0.00,WeatherDisplay:10.37,2013-01-13 10:48:00,
2013-01-13 04:53:00,30.0,22.4,29.79,WNW,292,0.0,0.3,73,0.00,CLR,,0.00,WeatherDisplay:10.37,2013-01-13 10:53:00,
2013-01-13 04:58:00,30.0,22.4,29.83,WNW,292,1.2,1.2,73,0.00,CLR,,0.00,WeatherDisplay:10.37,2013-01-13 10:58:00,
2013-01-13 05:03:00,30.0,22.4,29.83,WNW,292,0.0,0.3,73,0.00,CLR,,0.00,WeatherDisplay:10.37,2013-01-13 11:03:00,
2013-01-13 05:08:00,30.0,22.4,29.83,WNW,292,1.2,1.2,73,0.00,CLR,,0.00,WeatherDisplay:10.37,2013-01-13 11:08:00,
2013-01-13 05:13:00,30.0,22.4,29.83,WNW,292,1.2,1.2,73,0.00,CLR,,0.00,WeatherDisplay:10.37,2013-01-13 11:13:00,
2013-01-13 05:18:00,30.0,22.4,29.84,WNW,292,0.0,0.7,73,0.00,CLR,,0.00,WeatherDisplay:10.37,2013-01-13 11:18:00,
2013-01-13 05:23:00,30.0,22.4,29.84,WNW,292,3.5,3.5,73,0.00,CLR,,0.00,WeatherDisplay:10.37,2013-01-13 11:23:00,
2013-01-13 05:28:00,30.0,22.4,29.84,WNW,292,2.3,2.3,73,0.00,CLR,,0.00,WeatherDisplay:10.37,2013-01-13 11:28:00,
2013-01-13 05:33:00,30.0,22.4,29.84,WNW,292,0.0,0.7,73,0.00,CLR,,0.00,WeatherDisplay:10.37,2013-01-13 11:33:00,
2013-01-13 05:38:00,30.0,22.4,29.84,WNW,292,2.3,2.3,73,0.00,CLR,,0.00,WeatherDisplay:10.37,2013-01-13 11:38:00,
2013-01-13 05:43:00,30.0,22.4,29.84,WNW,292,2.3,2.3,73,0.00,CLR,,0.00,WeatherDisplay:10.37,2013-01-13 11:43:00,
2013-01-13 05:48:00,30.0,22.4,29.84,WNW,292,0.0,0.7,73,0.00,CLR,,0.00,WeatherDisplay:10.37,2013-01-13 11:48:00,
2013-01-13 05:53:00,30.0,22.4,29.84,WNW,292,1.2,1.2,73,0.00,CLR,,0.00,WeatherDisplay:10.37,2013-01-13 11:53:00,
2013-01-13 05:58:00,30.0,22.4,29.84,WNW,292,2.4,2.4,73,0.00,CLR,,0.00,WeatherDisplay:10.37,2013-01-13 11:58:00,
2013-01-13 06:03:00,30.0,22.4,29.84,WNW,292,0.0,0.7,73,0.00,CLR,,0.00,WeatherDisplay:10.37,2013-01-13 12:03:00,
2013-01-13 06:08:00,30.0,22.4,29.84,WNW,292,2.3,2.3,73,0.00,CLR,,0.00,WeatherDisplay:10.37,2013-01-13 12:08:00,
2013-01-13 06:13:00,30.0,22.4,29.84,WNW,292,2.3,2.3,73,0.00,CLR,,0.00,WeatherDisplay:10.37,2013-01-13 12:13:00,
2013-01-13 06:18:00,30.0,22.4,29.84,WNW,292,1.2,1.2,73,0.00,CLR,,0.00,WeatherDisplay:10.37,2013-01-13 12:18:00,
2013-01-13 06:23:00,30.0,22.4,29.84,WNW,292,2.3,2.3,73,0.00,CLR,,0.00,WeatherDisplay:10.37,2013-01-13 12:23:00,
2013-01-13 06:28:00,30.0,22.4,29.84,WNW,292,1.2,1.2,73,0.00,CLR,,0.00,WeatherDisplay:10.37,2013-01-13 12:28:00,
2013-01-13 06:33:00,30.0,22.4,29.84,WNW,292,1.2,1.2,73,0.00,CLR,,0.00,WeatherDisplay:10.37,2013-01-13 12:33:00,
2013-01-13 06:38:00,30.0,22.4,29.84,WNW,292,2.3,2.3,73,0.00,CLR,,0.00,WeatherDisplay:10.37,2013-01-13 12:38:00,
2013-01-13 06:43:00,30.0,22.4,29.84,WNW,292,2.3,2.3,73,0.00,CLR,,0.00,WeatherDisplay:10.37,2013-01-13 12:43:00,
2013-01-13 06:48:00,28.4,20.8,29.84,WNW,292,3.5,3.5,73,0.00,CLR,,0.00,WeatherDisplay:10.37,2013-01-13 12:48:00,
2013-01-13 06:53:00,28.0,20.2,29.84,WNW,292,2.3,2.3,72,0.00,CLR,,0.00,WeatherDisplay:10.37,2013-01-13 12:53:00,
2013-01-13 06:58:00,27.9,20.0,29.84,WNW,292,1.2,2.0,72,0.00,CLR,,0.00,WeatherDisplay:10.37,2013-01-13 12:58:00,
2013-01-13 07:03:00,27.9,20.0,29.84,WNW,292,0.0,1.3,72,0.00,CLR,,0.00,WeatherDisplay:10.37,2013-01-13 13:03:00,
2013-01-13 07:08:00,27.9,20.0,29.84,WNW,292,2.3,2.3,72,0.00,CLR,,0.00,WeatherDisplay:10.37,2013-01-13 13:08:00,
2013-01-13 07:13:00,27.9,20.0,29.84,WNW,292,2.3,2.3,72,0.00,CLR,,0.00,WeatherDisplay:10.37,2013-01-13 13:13:00,
2013-01-13 07:18:00,27.9,20.0,29.84,WNW,292,2.3,2.3,72,0.00,CLR,,0.00,WeatherDisplay:10.37,2013-01-13 13:18:00,
2013-01-13 07:23:00,27.7,19.8,29.84,WNW,292,1.2,1.2,72,0.00,CLR,,0.00,WeatherDisplay:10.37,2013-01-13 13:23:00,
2013-01-13 07:28:00,27.7,19.8,29.84,WNW,292,1.2,1.2,72,0.00,CLR,,0.00,WeatherDisplay:10.37,2013-01-13 13:28:00,
2013-01-13 07:33:00,27.7,19.8,29.84,WNW,292,0.0,0.2,72,0.00,CLR,,0.00,WeatherDisplay:10.37,2013-01-13 13:33:00,
2013-01-13 07:38:00,27.7,19.8,29.88,WNW,292,1.2,1.2,72,0.00,CLR,,0.00,WeatherDisplay:10.37,2013-01-13 13:38:00,
2013-01-13 07:43:00,27.7,19.8,29.88,WNW,292,2.3,2.3,72,0.00,CLR,,0.00,WeatherDisplay:10.37,2013-01-13 13:43:00,
2013-01-13 07:48:00,27.7,19.8,29.88,WNW,292,1.2,1.2,72,0.00,CLR,,0.00,WeatherDisplay:10.37,2013-01-13 13:48:00,
2013-01-13 07:53:00,27.5,19.7,29.88,WNW,292,0.0,0.3,72,0.00,CLR,,0.00,WeatherDisplay:10.37,2013-01-13 13:53:00,
2013-01-13 07:59:00,27.5,19.7,29.88,WNW,292,2.3,2.3,72,0.00,CLR,,0.00,WeatherDisplay:10.37,2013-01-13 13:59:00,
2013-01-13 08:04:00,27.5,19.7,29.88,WNW,292,2.3,2.3,72,0.00,CLR,,0.00,WeatherDisplay:10.37,2013-01-13 14:04:00,
2013-01-13 08:09:00,27.3,19.5,29.88,WNW,292,1.2,1.2,72,0.00,CLR,,0.00,WeatherDisplay:10.37,2013-01-13 14:09:00,
2013-01-13 08:14:00,27.3,19.5,29.88,WNW,292,2.3,2.3,72,0.00,CLR,,0.00,WeatherDisplay:10.37,2013-01-13 14:14:00,
2013-01-13 08:19:00,27.3,19.5,29.88,WNW,292,1.2,1.2,72,0.00,CLR,,0.00,WeatherDisplay:10.37,2013-01-13 14:19:00,
2013-01-13 08:24:00,27.1,19.0,29.88,WNW,292,3.5,3.5,71,0.00,CLR,,0.00,WeatherDisplay:10.37,2013-01-13 14:24:00,
2013-01-13 08:29:00,27.1,19.0,29.88,WNW,292,2.3,2.3,71,0.00,CLR,,0.00,WeatherDisplay:10.37,2013-01-13 14:29:00,
2013-01-13 08:34:00,27.1,19.0,29.88,WNW,292,2.3,2.3,71,0.00,CLR,,0.00,WeatherDisplay:10.37,2013-01-13 14:34:00,
2013-01-13 08:39:00,27.1,19.0,29.85,WNW,292,1.2,1.2,71,0.00,CLR,,0.00,WeatherDisplay:10.37,2013-01-13 14:39:00,
2013-01-13 08:44:00,27.1,19.0,29.85,WNW,292,0.0,0.3,71,0.00,CLR,,0.00,WeatherDisplay:10.37,2013-01-13 14:44:00,
2013-01-13 08:49:00,27.1,19.0,29.85,WNW,292,1.2,1.2,71,0.00,CLR,,0.00,WeatherDisplay:10.37,2013-01-13 14:49:00,
2013-01-13 08:54:00,27.1,19.0,29.85,WNW,292,2.3,2.3,71,0.00,CLR,,0.00,WeatherDisplay:10.37,2013-01-13 14:54:00,
2013-01-13 08:59:00,27.1,19.0,29.90,WNW,292,0.0,0.5,71,0.00,CLR,,0.00,WeatherDisplay:10.37,2013-01-13 14:59:00,
2013-01-13 09:04:00,27.1,19.0,29.90,WNW,292,3.5,3.5,71,0.00,CLR,,0.00,WeatherDisplay:10.37,2013-01-13 15:04:00,
2013-01-13 09:09:00,27.1,19.0,29.90,WNW,292,1.2,1.2,71,0.00,CLR,,0.00,WeatherDisplay:10.37,2013-01-13 15:09:00,
2013-01-13 09:14:00,27.1,19.0,29.90,WNW,292,3.5,3.5,71,0.00,CLR,,0.00,WeatherDisplay:10.37,2013-01-13 15:14:00,
2013-01-13 09:19:00,27.1,19.0,29.84,WNW,292,3.5,3.5,71,0.00,CLR,,0.00,WeatherDisplay:10.37,2013-01-13 15:19:00,
2013-01-13 09:24:00,27.1,19.0,29.84,WNW,292,2.3,2.3,71,0.00,CLR,,0.00,WeatherDisplay:10.37,2013-01-13 15:24:00,
2013-01-13 09:29:00,27.1,19.0,29.84,WNW,292,0.0,1.4,71,0.00,CLR,,0.00,WeatherDisplay:10.37,2013-01-13 15:29:00,
2013-01-13 09:34:00,27.0,18.8,29.84,WNW,292,1.2,1.2,71,0.00,CLR,,0.00,WeatherDisplay:10.37,2013-01-13 15:34:00,
2013-01-13 09:39:00,27.0,18.8,29.87,WNW,292,2.3,2.3,71,0.00,CLR,,0.00,WeatherDisplay:10.37,2013-01-13 15:39:00,
2013-01-13 09:44:00,27.1,19.0,29.87,WNW,292,2.3,2.3,71,0.00,CLR,,0.00,WeatherDisplay:10.37,2013-01-13 15:44:00,
2013-01-13 09:49:00,27.1,19.0,29.87,WNW,292,0.0,0.9,71,0.00,CLR,,0.00,WeatherDisplay:10.37,2013-01-13 15:49:00,
2013-01-13 09:54:00,27.1,19.0,29.87,WNW,292,2.3,2.3,71,0.00,CLR,,0.00,WeatherDisplay:10.37,2013-01-13 15:54:00,
2013-01-13 09:59:00,27.1,19.0,29.90,WNW,292,0.0,0.6,71,0.00,CLR,,0.00,WeatherDisplay:10.37,2013-01-13 15:59:00,
2013-01-13 10:04:00,27.1,19.0,29.90,WNW,292,0.0,0.3,71,0.00,CLR,,0.00,WeatherDisplay:10.37,2013-01-13 16:04:00,
2013-01-13 10:09:00,26.8,18.6,29.90,WNW,292,1.6,1.6,71,0.00,CLR,,0.00,WeatherDisplay:10.37,2013-01-13 16:09:00,
2013-01-13 10:14:00,26.8,18.3,29.90,WNW,292,3.5,3.5,70,0.00,CLR,,0.00,WeatherDisplay:10.37,2013-01-13 16:14:00,
2013-01-13 10:19:00,26.8,18.3,29.89,WNW,292,1.2,1.4,70,0.00,CLR,,0.00,WeatherDisplay:10.37,2013-01-13 16:19:00,
2013-01-13 10:24:00,26.8,18.3,29.89,WNW,292,1.2,1.4,70,0.00,CLR,,0.00,WeatherDisplay:10.37,2013-01-13 16:24:00,
2013-01-13 10:29:00,26.8,18.3,29.89,WNW,292,1.2,1.2,70,0.00,CLR,,0.00,WeatherDisplay:10.37,2013-01-13 16:29:00,
2013-01-13 10:34:00,26.8,18.3,29.89,WNW,292,2.3,2.3,70,0.00,CLR,,0.00,WeatherDisplay:10.37,2013-01-13 16:34:00,
2013-01-13 10:39:00,26.8,18.3,29.90,WNW,292,1.2,1.2,70,0.00,CLR,,0.00,WeatherDisplay:10.37,2013-01-13 16:39:00,
2013-01-13 10:44:00,26.8,18.3,29.90,WNW,292,2.3,2.3,70,0.00,CLR,,0.00,WeatherDisplay:10.37,2013-01-13 16:44:00,
2013-01-13 10:49:00,27.0,18.1,29.90,WNW,292,2.3,2.3,69,0.00,CLR,,0.00,WeatherDisplay:10.37,2013-01-13 16:49:00,
2013-01-13 10:54:00,26.8,18.0,29.90,WNW,292,0.0,0.9,69,0.00,CLR,,0.00,WeatherDisplay:10.37,2013-01-13 16:54:00,
2013-01-13 10:59:00,26.8,18.0,29.89,WNW,292,1.2,1.2,69,0.00,CLR,,0.00,WeatherDisplay:10.37,2013-01-13 16:59:00,
2013-01-13 11:04:00,26.8,18.0,29.89,WNW,292,3.5,3.5,69,0.00,CLR,,0.00,WeatherDisplay:10.37,2013-01-13 17:04:00,
2013-01-13 11:09:00,26.8,18.0,29.89,WNW,292,0.0,1.2,69,0.00,CLR,,0.00,WeatherDisplay:10.37,2013-01-13 17:09:00,
2013-01-13 11:14:00,26.8,18.0,29.89,WNW,292,2.3,2.3,69,0.00,CLR,,0.00,WeatherDisplay:10.37,2013-01-13 17:14:00,
2013-01-13 11:19:00,26.8,18.0,29.88,WNW,292,1.2,1.2,69,0.00,CLR,,0.00,WeatherDisplay:10.37,2013-01-13 17:19:00,
2013-01-13 11:24:00,26.8,18.0,29.88,WNW,292,1.2,1.2,69,0.00,CLR,,0.00,WeatherDisplay:10.37,2013-01-13 17:24:00,
2013-01-13 11:29:00,26.8,18.0,29.88,WNW,292,2.3,2.3,69,0.00,CLR,,0.00,WeatherDisplay:10.37,2013-01-13 17:29:00,
2013-01-13 11:34:00,26.8,18.0,29.88,WNW,292,2.3,2.3,69,0.00,CLR,,0.00,WeatherDisplay:10.37,2013-01-13 17:34:00,
2013-01-13 11:39:00,26.8,18.0,29.85,WNW,292,1.0,1.0,69,0.00,CLR,,0.00,WeatherDisplay:10.37,2013-01-13 17:39:00,
2013-01-13 11:44:00,26.8,18.0,29.85,WNW,292,0.0,0.2,69,0.00,CLR,,0.00,WeatherDisplay:10.37,2013-01-13 17:44:00,
2013-01-13 11:49:00,26.8,18.0,29.85,WNW,292,2.3,2.3,69,0.00,CLR,,0.00,WeatherDisplay:10.37,2013-01-13 17:49:00,
2013-01-13 11:54:00,27.1,17.6,29.85,WNW,292,2.3,2.3,67,0.00,CLR,,0.00,WeatherDisplay:10.37,2013-01-13 17:54:00,
2013-01-13 11:59:00,27.1,17.6,29.84,WNW,292,3.5,3.5,67,0.00,CLR,,0.00,WeatherDisplay:10.37,2013-01-13 17:59:00,
2013-01-13 12:04:00,27.1,17.6,29.84,WNW,292,1.2,1.2,67,0.00,CLR,,0.00,WeatherDisplay:10.37,2013-01-13 18:04:00,
2013-01-13 12:09:00,27.1,17.6,29.84,WNW,292,0.0,1.2,67,0.00,CLR,,0.00,WeatherDisplay:10.37,2013-01-13 18:09:00,
2013-01-13 12:14:00,27.1,17.6,29.84,WNW,292,1.3,1.3,67,0.00,CLR,,0.00,WeatherDisplay:10.37,2013-01-13 18:14:00,
2013-01-13 12:19:00,27.1,17.6,29.87,WNW,292,1.5,1.5,67,0.00,CLR,,0.00,WeatherDisplay:10.37,2013-01-13 18:19:00,
2013-01-13 12:24:00,27.0,17.1,29.87,WNW,292,2.3,2.3,66,0.00,CLR,,0.00,WeatherDisplay:10.37,2013-01-13 18:24:00,
2013-01-13 12:29:00,27.1,17.6,29.87,WNW,292,2.3,2.3,67,0.00,CLR,,0.00,WeatherDisplay:10.37,2013-01-13 18:29:00,
2013-01-13 12:34:00,27.1,17.6,29.87,WNW,292,2.3,2.3,67,0.00,CLR,,0.00,WeatherDisplay:10.37,2013-01-13 18:34:00,
2013-01-13 12:39:00,27.1,17.6,29.88,WNW,292,0.0,0.5,67,0.00,CLR,,0.00,WeatherDisplay:10.37,2013-01-13 18:39:00,
2013-01-13 12:44:00,27.1,17.6,29.88,WNW,292,1.2,1.2,67,0.00,CLR,,0.00,WeatherDisplay:10.37,2013-01-13 18:44:00,
2013-01-13 12:49:00,26.8,16.9,29.88,WNW,292,1.5,1.5,66,0.00,CLR,,0.00,WeatherDisplay:10.37,2013-01-13 18:49:00,
2013-01-13 12:54:00,26.8,16.9,29.88,WNW,292,1.5,1.5,66,0.00,CLR,,0.00,WeatherDisplay:10.37,2013-01-13 18:54:00,
2013-01-13 12:59:00,26.8,16.6,29.88,WNW,292,2.3,2.3,65,0.00,CLR,,0.00,WeatherDisplay:10.37,2013-01-13 18:59:00,
2013-01-13 13:04:00,26.8,16.6,29.88,WNW,292,1.6,1.6,65,0.00,CLR,,0.00,WeatherDisplay:10.37,2013-01-13 19:04:00,
2013-01-13 13:09:00,26.6,16.4,29.88,WNW,292,2.3,2.3,65,0.00,CLR,,0.00,WeatherDisplay:10.37,2013-01-13 19:09:00,
2013-01-13 13:14:00,26.6,16.4,29.88,WNW,292,1.2,1.2,65,0.00,CLR,,0.00,WeatherDisplay:10.37,2013-01-13 19:14:00,
2013-01-13 13:19:00,26.6,16.4,29.92,WNW,292,0.0,0.2,65,0.00,CLR,,0.00,WeatherDisplay:10.37,2013-01-13 19:19:00,
2013-01-13 13:24:00,26.4,16.2,29.92,WNW,292,0.0,0.1,65,0.00,CLR,,0.00,WeatherDisplay:10.37,2013-01-13 19:24:00,
2013-01-13 13:29:00,26.4,16.2,29.92,WNW,292,1.4,1.4,65,0.00,CLR,,0.00,WeatherDisplay:10.37,2013-01-13 19:29:00,
2013-01-13 13:34:00,26.6,16.4,29.92,WNW,292,0.0,0.1,65,0.00,CLR,,0.00,WeatherDisplay:10.37,2013-01-13 19:34:00,
2013-01-13 13:39:00,26.6,16.4,29.89,WNW,292,0.0,0.1,65,0.00,CLR,,0.00,WeatherDisplay:10.37,2013-01-13 19:39:00,
2013-01-13 13:44:00,26.6,16.4,29.89,WNW,292,1.2,1.2,65,0.00,CLR,,0.00,WeatherDisplay:10.37,2013-01-13 19:44:00,
2013-01-13 13:49:00,26.8,16.6,29.89,WNW,292,2.1,2.1,65,0.00,CLR,,0.00,WeatherDisplay:10.37,2013-01-13 19:49:00,
2013-01-13 13:54:00,26.8,16.6,29.89,WNW,292,2.3,2.3,65,0.00,CLR,,0.00,WeatherDisplay:10.37,2013-01-13 19:54:00,
2013-01-13 13:59:00,26.8,16.2,29.87,WNW,292,4.6,4.6,64,0.00,CLR,,0.00,WeatherDisplay:10.37,2013-01-13 19:59:00,
2013-01-13 14:04:00,26.6,16.1,29.87,WNW,292,2.3,2.3,64,0.00,CLR,,0.00,WeatherDisplay:10.37,2013-01-13 20:04:00,
2013-01-13 14:09:00,26.4,15.9,29.87,WNW,292,0.0,1.2,64,0.00,CLR,,0.00,WeatherDisplay:10.37,2013-01-13 20:09:00,
2013-01-13 14:14:00,26.6,16.1,29.87,WNW,292,2.3,2.3,64,0.00,CLR,,0.00,WeatherDisplay:10.37,2013-01-13 20:14:00,
2013-01-13 14:19:00,26.6,16.1,29.86,WNW,292,0.0,0.8,64,0.00,CLR,,0.00,WeatherDisplay:10.37,2013-01-13 20:19:00,
2013-01-13 14:24:00,26.6,15.7,29.86,WNW,292,3.5,3.5,63,0.00,CLR,,0.00,WeatherDisplay:10.37,2013-01-13 20:24:00,
2013-01-13 14:29:00,26.4,15.5,29.86,WNW,292,0.0,1.0,63,0.00,CLR,,0.00,WeatherDisplay:10.37,2013-01-13 20:29:00,
2013-01-13 14:34:00,26.6,15.7,29.86,WNW,292,1.2,1.2,63,0.00,CLR,,0.00,WeatherDisplay:10.37,2013-01-13 20:34:00,
2013-01-13 14:39:00,26.4,15.5,29.88,WNW,292,0.0,0.5,63,0.00,CLR,,0.00,WeatherDisplay:10.37,2013-01-13 20:39:00,
2013-01-13 14:44:00,26.4,15.2,29.88,WNW,292,2.3,2.3,62,0.00,CLR,,0.00,WeatherDisplay:10.37,2013-01-13 20:44:00,
2013-01-13 14:49:00,26.2,15.0,29.88,WNW,292,1.5,1.5,62,0.00,CLR,,0.00,WeatherDisplay:10.37,2013-01-13 20:49:00,
2013-01-13 14:54:00,26.1,14.4,29.88,WNW,292,2.3,2.3,61,0.00,CLR,,0.00,WeatherDisplay:10.37,2013-01-13 20:54:00,
2013-01-13 14:59:00,26.1,14.4,29.87,WNW,292,1.2,1.2,61,0.00,CLR,,0.00,WeatherDisplay:10.37,2013-01-13 20:59:00,
2013-01-13 15:04:00,25.9,14.3,29.87,WNW,292,2.3,2.3,61,0.00,CLR,,0.00,WeatherDisplay:10.37,2013-01-13 21:04:00,
2013-01-13 15:09:00,25.5,13.5,29.87,WNW,292,2.3,2.3,60,0.00,CLR,,0.00,WeatherDisplay:10.37,2013-01-13 21:09:00,
2013-01-13 15:14:00,25.5,13.5,29.87,WNW,292,2.3,2.3,60,0.00,CLR,,0.00,WeatherDisplay:10.37,2013-01-13 21:14:00,
2013-01-13 15:19:00,25.7,13.7,29.90,WNW,292,3.8,3.8,60,0.00,CLR,,0.00,WeatherDisplay:10.37,2013-01-13 21:19:00,
2013-01-13 15:24:00,25.7,13.7,29.90,WNW,292,2.3,2.3,60,0.00,CLR,,0.00,WeatherDisplay:10.37,2013-01-13 21:24:00,
2013-01-13 15:29:00,25.5,13.9,29.90,WNW,292,0.0,0.5,61,0.00,CLR,,0.00,WeatherDisplay:10.37,2013-01-13 21:29:00,
2013-01-13 15:34:00,25.5,13.9,29.90,WNW,292,2.3,2.3,61,0.00,CLR,,0.00,WeatherDisplay:10.37,2013-01-13 21:34:00,
2013-01-13 15:39:00,25.2,13.2,29.91,WNW,292,0.0,0.5,60,0.00,CLR,,0.00,WeatherDisplay:10.37,2013-01-13 21:39:00,
2013-01-13 15:44:00,25.2,13.2,29.91,WNW,292,2.3,2.3,60,0.00,CLR,,0.00,WeatherDisplay:10.37,2013-01-13 21:44:00,
2013-01-13 15:49:00,25.2,13.6,29.91,WNW,292,1.2,1.2,61,0.00,CLR,,0.00,WeatherDisplay:10.37,2013-01-13 21:49:00,
2013-01-13 15:54:00,25.2,13.6,29.91,WNW,292,0.0,0.3,61,0.00,CLR,,0.00,WeatherDisplay:10.37,2013-01-13 21:54:00,
2013-01-13 15:59:00,24.8,12.9,29.92,WNW,292,1.2,1.2,60,0.00,CLR,,0.00,WeatherDisplay:10.37,2013-01-13 21:59:00,
2013-01-13 16:04:00,24.4,12.1,29.92,WNW,292,2.3,2.3,59,0.00,CLR,,0.00,WeatherDisplay:10.37,2013-01-13 22:04:00,
2013-01-13 16:09:00,24.4,12.1,29.92,WNW,292,0.0,0.6,59,0.00,CLR,,0.00,WeatherDisplay:10.37,2013-01-13 22:09:00,
2013-01-13 16:14:00,24.4,12.1,29.92,WNW,292,0.0,0.3,59,0.00,CLR,,0.00,WeatherDisplay:10.37,2013-01-13 22:14:00,
2013-01-13 16:19:00,24.3,12.0,29.92,WNW,292,1.2,1.2,59,0.00,CLR,,0.00,WeatherDisplay:10.37,2013-01-13 22:19:00,
2013-01-13 16:24:00,24.1,11.8,29.92,WNW,292,1.2,1.2,59,0.00,CLR,,0.00,WeatherDisplay:10.37,2013-01-13 22:24:00,
2013-01-13 16:29:00,23.7,11.5,29.92,WNW,292,2.3,2.3,59,0.00,CLR,,0.00,WeatherDisplay:10.37,2013-01-13 22:29:00,
2013-01-13 16:34:00,23.7,11.5,29.92,WNW,292,2.3,2.3,59,0.00,CLR,,0.00,WeatherDisplay:10.37,2013-01-13 22:34:00,
2013-01-13 16:39:00,23.2,10.6,29.94,WNW,292,0.0,0.7,58,0.00,CLR,,0.00,WeatherDisplay:10.37,2013-01-13 22:39:00,
2013-01-13 16:44:00,23.4,10.7,29.94,WNW,292,1.2,1.2,58,0.00,CLR,,0.00,WeatherDisplay:10.37,2013-01-13 22:44:00,
2013-01-13 16:49:00,23.2,10.6,29.94,WNW,292,1.2,1.2,58,0.00,CLR,,0.00,WeatherDisplay:10.37,2013-01-13 22:49:00,
2013-01-13 16:54:00,23.0,10.4,29.94,WNW,292,2.3,2.3,58,0.00,CLR,,0.00,WeatherDisplay:10.37,2013-01-13 22:54:00,
2013-01-13 16:59:00,23.0,10.4,29.94,WNW,292,0.0,0.6,58,0.00,CLR,,0.00,WeatherDisplay:10.37,2013-01-13 22:59:00,
2013-01-13 17:04:00,23.0,10.4,29.94,WNW,292,2.3,2.3,58,0.00,CLR,,0.00,WeatherDisplay:10.37,2013-01-13 23:04:00,
2013-01-13 17:09:00,22.6,10.1,29.94,WNW,292,0.0,0.9,58,0.00,CLR,,0.00,WeatherDisplay:10.37,2013-01-13 23:09:00,
2013-01-13 17:14:00,22.5,9.5,29.94,WNW,292,2.3,2.3,57,0.00,CLR,,0.00,WeatherDisplay:10.37,2013-01-13 23:14:00,
2013-01-13 17:19:00,22.5,9.5,29.96,WNW,292,0.0,1.2,57,0.00,CLR,,0.00,WeatherDisplay:10.37,2013-01-13 23:19:00,
2013-01-13 17:24:00,22.1,8.8,29.96,WNW,292,4.6,4.6,56,0.00,CLR,,0.00,WeatherDisplay:10.37,2013-01-13 23:24:00,
2013-01-13 17:29:00,21.9,8.6,29.96,WNW,292,0.0,1.5,56,0.00,CLR,,0.00,WeatherDisplay:10.37,2013-01-13 23:29:00,
2013-01-13 17:34:00,21.9,8.6,29.96,WNW,292,2.3,2.3,56,0.00,CLR,,0.00,WeatherDisplay:10.37,2013-01-13 23:34:00,
2013-01-13 17:39:00,21.7,8.4,29.98,WNW,292,2.3,2.3,56,0.00,CLR,,0.00,WeatherDisplay:10.37,2013-01-13 23:39:00,
2013-01-13 17:44:00,21.7,8.4,29.98,WNW,292,2.3,2.3,56,0.00,CLR,,0.00,WeatherDisplay:10.37,2013-01-13 23:44:00,
2013-01-13 17:49:00,21.6,8.7,29.98,WNW,292,1.2,1.2,57,0.00,CLR,,0.00,WeatherDisplay:10.37,2013-01-13 23:49:00,
2013-01-13 17:54:00,21.4,8.5,29.98,WNW,292,1.2,1.2,57,0.00,CLR,,0.00,WeatherDisplay:10.37,2013-01-13 23:54:00,
2013-01-13 17:59:00,21.2,8.3,29.99,WNW,292,1.2,1.2,57,0.00,CLR,,0.00,WeatherDisplay:10.37,2013-01-13 23:59:00,
2013-01-13 18:04:00,21.2,8.3,29.99,WNW,292,1.2,1.2,57,0.00,CLR,,0.00,WeatherDisplay:10.37,2013-01-14 00:04:00,
2013-01-13 18:09:00,21.2,8.3,29.99,WNW,292,1.2,1.2,57,0.00,CLR,,0.00,WeatherDisplay:10.37,2013-01-14 00:09:00,
2013-01-13 18:14:00,21.0,8.2,29.99,WNW,292,1.2,1.2,57,0.00,CLR,,0.00,WeatherDisplay:10.37,2013-01-14 00:14:00,
2013-01-13 18:19:00,21.0,8.2,29.99,WNW,292,2.3,2.3,57,0.00,CLR,,0.00,WeatherDisplay:10.37,2013-01-14 00:19:00,
2013-01-13 18:24:00,20.8,8.0,29.99,WNW,292,1.2,1.2,57,0.00,CLR,,0.00,WeatherDisplay:10.37,2013-01-14 00:24:00,
2013-01-13 18:29:00,20.5,7.6,29.99,WNW,292,1.2,1.2,57,0.00,CLR,,0.00,WeatherDisplay:10.37,2013-01-14 00:29:00,
2013-01-13 18:34:00,20.5,7.6,29.99,WNW,292,2.4,2.4,57,0.00,CLR,,0.00,WeatherDisplay:10.37,2013-01-14 00:34:00,
2013-01-13 18:39:00,20.3,7.5,30.00,WNW,292,1.6,1.6,57,0.00,CLR,,0.00,WeatherDisplay:10.37,2013-01-14 00:39:00,
2013-01-13 18:44:00,20.1,6.9,30.00,WNW,292,2.3,2.3,56,0.00,CLR,,0.00,WeatherDisplay:10.37,2013-01-14 00:44:00,
2013-01-13 18:49:00,20.1,7.3,30.00,WNW,292,1.2,1.2,57,0.00,CLR,,0.00,WeatherDisplay:10.37,2013-01-14 00:49:00,
2013-01-13 18:54:00,20.1,7.3,30.00,WNW,292,2.4,2.4,57,0.00,CLR,,0.00,WeatherDisplay:10.37,2013-01-14 00:54:00,
2013-01-13 18:59:00,20.1,7.3,30.02,WNW,292,2.0,2.0,57,0.00,CLR,,0.00,WeatherDisplay:10.37,2013-01-14 00:59:00,
2013-01-13 19:04:00,19.9,7.1,30.02,WNW,292,0.0,0.7,57,0.00,CLR,,0.00,WeatherDisplay:10.37,2013-01-14 01:04:00,
2013-01-13 19:09:00,20.1,7.3,30.02,WNW,292,2.3,2.3,57,0.00,CLR,,0.00,WeatherDisplay:10.37,2013-01-14 01:09:00,
2013-01-13 19:14:00,19.9,7.1,30.02,WNW,292,2.3,2.3,57,0.00,CLR,,0.00,WeatherDisplay:10.37,2013-01-14 01:14:00,
2013-01-13 19:19:00,19.8,7.0,30.02,WNW,292,2.8,2.8,57,0.00,CLR,,0.00,WeatherDisplay:10.37,2013-01-14 01:19:00,
2013-01-13 19:24:00,19.6,6.4,30.02,WNW,292,1.2,1.2,56,0.00,CLR,,0.00,WeatherDisplay:10.37,2013-01-14 01:24:00,
2013-01-13 19:29:00,19.4,6.2,30.02,WNW,292,3.5,3.5,56,0.00,CLR,,0.00,WeatherDisplay:10.37,2013-01-14 01:29:00,
2013-01-13 19:34:00,19.2,6.1,30.02,WNW,292,1.2,1.2,56,0.00,CLR,,0.00,WeatherDisplay:10.37,2013-01-14 01:34:00,
2013-01-13 19:39:00,19.0,5.9,30.04,WNW,292,1.7,1.7,56,0.00,CLR,,0.00,WeatherDisplay:10.37,2013-01-14 01:39:00,
2013-01-13 19:44:00,19.0,5.9,30.04,WNW,292,2.3,2.3,56,0.00,CLR,,0.00,WeatherDisplay:10.37,2013-01-14 01:44:00,
2013-01-13 19:49:00,19.0,5.9,30.04,WNW,292,1.2,1.6,56,0.00,CLR,,0.00,WeatherDisplay:10.37,2013-01-14 01:49:00,
2013-01-13 19:54:00,18.9,5.7,30.04,WNW,292,1.6,1.6,56,0.00,CLR,,0.00,WeatherDisplay:10.37,2013-01-14 01:54:00,
2013-01-13 19:59:00,18.9,6.1,30.02,WNW,292,3.9,3.9,57,0.00,CLR,,0.00,WeatherDisplay:10.37,2013-01-14 01:59:00,
2013-01-13 20:04:00,18.7,6.0,30.02,WNW,292,2.6,2.6,57,0.00,CLR,,0.00,WeatherDisplay:10.37,2013-01-14 02:04:00,
2013-01-13 20:09:00,18.1,5.1,30.02,WNW,292,0.0,1.3,56,0.00,CLR,,0.00,WeatherDisplay:10.37,2013-01-14 02:09:00,
2013-01-13 20:14:00,18.1,5.1,30.02,WNW,292,2.3,2.3,56,0.00,CLR,,0.00,WeatherDisplay:10.37,2013-01-14 02:14:00,
2013-01-13 20:19:00,18.0,4.9,30.03,WNW,292,1.2,1.2,56,0.00,CLR,,0.00,WeatherDisplay:10.37,2013-01-14 02:19:00,
2013-01-13 20:24:00,17.8,4.7,30.03,WNW,292,2.3,2.3,56,0.00,CLR,,0.00,WeatherDisplay:10.37,2013-01-14 02:24:00,
2013-01-13 20:29:00,17.6,4.5,30.03,WNW,292,3.5,3.5,56,0.00,CLR,,0.00,WeatherDisplay:10.37,2013-01-14 02:29:00,
2013-01-13 20:34:00,17.6,4.5,30.03,WNW,292,2.3,2.3,56,0.00,CLR,,0.00,WeatherDisplay:10.37,2013-01-14 02:34:00,
2013-01-13 20:39:00,17.4,4.4,30.03,WNW,292,1.2,1.2,56,0.00,CLR,,0.00,WeatherDisplay:10.37,2013-01-14 02:39:00,
2013-01-13 20:44:00,17.4,4.4,30.03,WNW,292,2.3,2.3,56,0.00,CLR,,0.00,WeatherDisplay:10.37,2013-01-14 02:44:00,
2013-01-13 20:53:00,17.4,4.4,30.03,WNW,292,2.0,2.0,56,0.00,CLR,,0.00,WeatherDisplay:10.37,2013-01-14 02:53:00,
2013-01-13 20:58:00,17.4,4.4,30.03,WNW,292,1.2,1.2,56,0.00,CLR,,0.00,WeatherDisplay:10.37,2013-01-14 02:58:00,
2013-01-13 21:03:00,17.6,4.5,30.03,WNW,292,2.3,2.3,56,0.00,CLR,,0.00,WeatherDisplay:10.37,2013-01-14 03:03:00,
2013-01-13 21:08:00,17.6,4.5,30.03,WNW,292,2.3,2.3,56,0.00,CLR,,0.00,WeatherDisplay:10.37,2013-01-14 03:08:00,
2013-01-13 21:13:00,17.8,4.7,30.03,WNW,292,0.0,0.5,56,0.00,CLR,,0.00,WeatherDisplay:10.37,2013-01-14 03:13:00,
2013-01-13 21:18:00,17.8,4.7,30.05,WNW,292,3.5,3.5,56,0.00,CLR,,0.00,WeatherDisplay:10.37,2013-01-14 03:18:00,
2013-01-13 21:23:00,18.0,4.9,30.05,WNW,292,2.3,2.3,56,0.00,CLR,,0.00,WeatherDisplay:10.37,2013-01-14 03:23:00,
2013-01-13 21:28:00,18.0,4.9,30.05,WNW,292,0.0,0.5,56,0.00,CLR,,0.00,WeatherDisplay:10.37,2013-01-14 03:28:00,
2013-01-13 21:33:00,18.1,5.1,30.05,WNW,292,3.5,3.5,56,0.00,CLR,,0.00,WeatherDisplay:10.37,2013-01-14 03:33:00,
2013-01-13 21:38:00,18.1,5.1,30.05,WNW,292,1.2,1.2,56,0.00,CLR,,0.00,WeatherDisplay:10.37,2013-01-14 03:38:00,
2013-01-13 21:43:00,17.8,4.7,30.05,WNW,292,1.2,1.2,56,0.00,CLR,,0.00,WeatherDisplay:10.37,2013-01-14 03:43:00,
2013-01-13 21:48:00,17.8,4.3,30.05,WNW,292,2.4,2.4,55,0.00,CLR,,0.00,WeatherDisplay:10.37,2013-01-14 03:48:00,
2013-01-13 21:53:00,17.4,4.0,30.05,WNW,292,2.3,2.3,55,0.00,CLR,,0.00,WeatherDisplay:10.37,2013-01-14 03:53:00,
2013-01-13 21:58:00,17.1,3.3,30.06,WNW,292,2.4,2.4,54,0.00,CLR,,0.00,WeatherDisplay:10.37,2013-01-14 03:58:00,
2013-01-13 22:03:00,16.9,3.5,30.06,WNW,292,2.3,2.3,55,0.00,CLR,,0.00,WeatherDisplay:10.37,2013-01-14 04:03:00,
2013-01-13 22:08:00,17.1,3.6,30.06,WNW,292,1.2,1.4,55,0.00,CLR,,0.00,WeatherDisplay:10.37,2013-01-14 04:08:00,
2013-01-13 22:13:00,17.1,3.6,30.06,WNW,292,1.3,1.3,55,0.00,CLR,,0.00,WeatherDisplay:10.37,2013-01-14 04:13:00,
2013-01-13 22:18:00,17.1,3.6,30.08,WNW,292,0.0,0.6,55,0.00,CLR,,0.00,WeatherDisplay:10.37,2013-01-14 04:18:00,
2013-01-13 22:23:00,16.9,3.5,30.08,WNW,292,2.9,2.9,55,0.00,CLR,,0.00,WeatherDisplay:10.37,2013-01-14 04:23:00,
2013-01-13 22:28:00,16.7,3.3,30.08,WNW,292,2.5,2.5,55,0.00,CLR,,0.00,WeatherDisplay:10.37,2013-01-14 04:28:00,
2013-01-13 22:33:00,16.5,3.1,30.08,WNW,292,0.0,0.7,55,0.00,CLR,,0.00,WeatherDisplay:10.37,2013-01-14 04:33:00,
2013-01-13 22:38:00,16.3,2.6,30.07,WNW,292,2.3,2.3,54,0.00,CLR,,0.00,WeatherDisplay:10.37,2013-01-14 04:38:00,
2013-01-13 22:43:00,16.3,2.6,30.07,WNW,292,1.3,1.3,54,0.00,CLR,,0.00,WeatherDisplay:10.37,2013-01-14 04:43:00,
2013-01-13 22:48:00,16.3,3.0,30.07,WNW,292,1.2,1.2,55,0.00,CLR,,0.00,WeatherDisplay:10.37,2013-01-14 04:48:00,
2013-01-13 22:53:00,16.3,2.6,30.07,WNW,292,1.2,1.2,54,0.00,CLR,,0.00,WeatherDisplay:10.37,2013-01-14 04:53:00,
2013-01-13 22:58:00,16.5,3.1,30.07,WNW,292,1.2,1.2,55,0.00,CLR,,0.00,WeatherDisplay:10.37,2013-01-14 04:58:00,
2013-01-13 23:00:00,16.5,3.1,30.07,WNW,292,2.3,2.3,55,0.00,CLR,,0.00,WeatherDisplay:10.37,2013-01-14 05:00:00,
2013-01-13 23:01:00,16.5,3.1,30.07,WNW,292,2.3,2.3,55,0.00,CLR,,0.00,WeatherDisplay:10.37,2013-01-14 05:01:00,
2013-01-13 23:03:00,16.5,3.1,30.07,WNW,292,3.5,3.5,55,0.00,CLR,,0.00,WeatherDisplay:10.37,2013-01-14 05:03:00,
2013-01-13 23:04:00,16.5,3.1,30.07,WNW,292,3.5,3.5,55,0.00,CLR,,0.00,WeatherDisplay:10.37,2013-01-14 05:04:00,
2013-01-13 23:09:00,16.5,3.1,30.07,WNW,292,0.0,0.7,55,0.00,CLR,,0.00,WeatherDisplay:10.37,2013-01-14 05:09:00,
2013-01-13 23:14:00,16.5,3.1,30.07,WNW,292,1.2,1.2,55,0.00,CLR,,0.00,WeatherDisplay:10.37,2013-01-14 05:14:00,
2013-01-13 23:19:00,16.9,3.5,30.08,WNW,292,1.2,1.2,55,0.00,CLR,,0.00,WeatherDisplay:10.37,2013-01-14 05:19:00,
2013-01-13 23:24:00,16.7,3.3,30.08,WNW,292,0.0,0.2,55,0.00,CLR,,0.00,WeatherDisplay:10.37,2013-01-14 05:24:00,
2013-01-13 23:29:00,16.7,3.3,30.08,WNW,292,1.2,1.2,55,0.00,CLR,,0.00,WeatherDisplay:10.37,2013-01-14 05:29:00,
2013-01-13 23:34:00,16.7,3.3,30.08,WNW,292,2.3,2.3,55,0.00,CLR,,0.00,WeatherDisplay:10.37,2013-01-14 05:34:00,
2013-01-13 23:39:00,16.5,3.1,30.09,WNW,292,2.3,2.3,55,0.00,CLR,,0.00,WeatherDisplay:10.37,2013-01-14 05:39:00,
2013-01-13 23:44:00,16.3,3.0,30.09,WNW,292,2.5,2.5,55,0.00,CLR,,0.00,WeatherDisplay:10.37,2013-01-14 05:44:00,
2013-01-13 23:49:00,16.0,2.6,30.09,WNW,292,3.5,3.5,55,0.00,CLR,,0.00,WeatherDisplay:10.37,2013-01-14 05:49:00,
2013-01-13 23:54:00,15.8,2.5,30.09,WNW,292,2.3,2.3,55,0.00,CLR,,0.00,WeatherDisplay:10.37,2013-01-14 05:54:00,
2013-01-13 23:59:00,15.6,2.3,30.10,WNW,292,1.2,1.7,55,0.00,CLR,,0.00,WeatherDisplay:10.37,2013-01-14 05:59:00,